TimeEDT,TemperatureF,Dew PointF,Humidity,Sea Level PressureIn,VisibilityMPH,Wind Direction,Wind SpeedMPH,Gust SpeedMPH,PrecipitationIn,Events,Conditions,WindDirDegrees,DateUTC
12:54 AM,55.0,48.0,77,29.88,10.0,WSW,5.8,-,N/A,,Partly Cloudy,240,2012-10-01 04:54:00
1:54 AM,54.0,48.0,80,29.88,10.0,WSW,4.6,-,N/A,,Partly Cloudy,240,2012-10-01 05:54:00
2:54 AM,53.1,48.0,83,29.88,10.0,WSW,6.9,-,N/A,,Clear,250,2012-10-01 06:54:00
3:54 AM,53.1,48.0,83,29.88,10.0,NW,6.9,-,N/A,,Clear,320,2012-10-01 07:54:00
4:54 AM,52.0,48.0,86,29.89,10.0,SSW,8.1,-,N/A,,Clear,200,2012-10-01 08:54:00
5:54 AM,52.0,48.9,89,29.91,10.0,West,5.8,-,N/A,,Partly Cloudy,270,2012-10-01 09:54:00
6:21 AM,53.6,48.2,82,29.91,9.0,WSW,8.1,-,N/A,,Scattered Clouds,250,2012-10-01 10:21:00
6:54 AM,53.1,48.0,83,29.91,9.0,WSW,8.1,-,N/A,,Scattered Clouds,250,2012-10-01 10:54:00
7:50 AM,53.6,48.2,82,29.93,10.0,WSW,9.2,-,N/A,,Mostly Cloudy,250,2012-10-01 11:50:00
7:54 AM,54.0,48.0,80,29.94,10.0,WSW,10.4,-,N/A,,Mostly Cloudy,250,2012-10-01 11:54:00
8:54 AM,57.0,48.0,72,29.95,10.0,West,9.2,-,N/A,,Mostly Cloudy,270,2012-10-01 12:54:00
9:54 AM,60.1,46.9,62,29.95,10.0,WNW,3.5,-,N/A,,Mostly Cloudy,300,2012-10-01 13:54:00
10:54 AM,64.9,44.1,47,29.95,10.0,WNW,9.2,17.3,N/A,,Mostly Cloudy,300,2012-10-01 14:54:00
11:54 AM,66.9,44.1,44,29.95,10.0,West,4.6,-,N/A,,Scattered Clouds,270,2012-10-01 15:54:00
12:54 PM,69.1,45.0,42,29.94,10.0,WSW,11.5,-,N/A,,Scattered Clouds,240,2012-10-01 16:54:00
1:54 PM,71.1,43.0,36,29.92,10.0,WSW,11.5,17.3,N/A,,Scattered Clouds,250,2012-10-01 17:54:00
2:54 PM,72.0,42.1,34,29.91,10.0,SW,10.4,20.7,N/A,,Scattered Clouds,230,2012-10-01 18:54:00
3:54 PM,72.0,44.1,37,29.91,10.0,WSW,10.4,-,N/A,,Mostly Cloudy,240,2012-10-01 19:54:00
4:54 PM,71.1,44.1,38,29.91,10.0,WSW,10.4,-,N/A,,Mostly Cloudy,240,2012-10-01 20:54:00
5:54 PM,70.0,48.0,46,29.93,10.0,SW,8.1,-,N/A,,Mostly Cloudy,220,2012-10-01 21:54:00
6:54 PM,69.1,46.9,45,29.95,10.0,SW,9.2,-,N/A,,Mostly Cloudy,230,2012-10-01 22:54:00
7:54 PM,68.0,48.0,49,29.96,10.0,SW,8.1,-,N/A,,Mostly Cloudy,230,2012-10-01 23:54:00
8:54 PM,66.0,52.0,60,29.98,10.0,South,6.9,-,N/A,,Overcast,190,2012-10-02 00:54:00
9:54 PM,64.9,54.0,68,29.97,10.0,South,4.6,-,N/A,,Overcast,180,2012-10-02 01:54:00
10:54 PM,64.9,55.0,70,29.97,10.0,South,4.6,-,N/A,,Overcast,180,2012-10-02 02:54:00
11:54 PM,64.0,57.0,78,29.98,10.0,SSE,3.5,-,0.00,,Light Drizzle,160,2012-10-02 03:54:00